Regional Weather Roundup
Issued by NWS

Home | Current Version | Previous Version | Graphics & Text | Print | Product List | Glossary On
Versions: 1 2 3 4 5 6 7 8 9 10 11 12 13 14 15 16 17 18 19 20 21 22 23 24 25 26 27 28 29 30 31 32 33 34 35 36 37 38 39 40 41 42 43 44 45 46 47 48 49 50
000
ASUS43 KBIS 030610
RWRND

NORTH DAKOTA REGIONAL WEATHER ROUNDUP
NATIONAL WEATHER SERVICE BISMARCK ND
1200 AM CST TUE MAR 03 2015

NOTE: "FAIR" INDICATES FEW OR NO CLOUDS BELOW 12,000 FEET WITH NO
SIGNIFICANT WEATHER AND/OR OBSTRUCTIONS TO VISIBILITY.


NDZ001>003-009>011-017-030700-
NORTHWEST NORTH DAKOTA

CITY           SKY/WX    TMP DP  RH WIND       PRES   REMARKS
WILLISTON      FLURRIES  16   8  71 N23G32    29.97R WCI  -2
6HR MIN TEMP:  16; 6HR MAX TEMP:  29; 6HR PCP: TRACE;

MINOT          FLURRIES  15   8  73 NW28G38   29.84R WCI  -5
MINOT AFB      FAIR      15  11  85 NW31      29.83R WCI  -6
$$

NDZ018>021-031>035-040>046-030700-
SOUTHWEST NORTH DAKOTA

CITY           SKY/WX    TMP DP  RH WIND       PRES   REMARKS
BISMARCK       FAIR      22  15  75 NW16G24   29.82R WCI   8
6HR MIN TEMP:  22; 6HR MAX TEMP:  37;

DICKINSON      CLOUDY    18  10  71 NW21G26   29.84R WCI   1
GARRISON         N/A     16  10  77 NW29      29.82R WCI  -4
6HR MIN TEMP:  16; 6HR MAX TEMP:  32;

HETTINGER ARPT MOCLDY    20  12  71 N24G36    29.78S WCI   3
$$

NDZ004>008-012>016-024-026-027-054-030700-
NORTHEAST NORTH DAKOTA

CITY           SKY/WX    TMP DP  RH WIND       PRES   REMARKS
GRAND FORKS    FAIR      24  18  77 S14       29.74F WCI  12
GRND FRKS AFB  CLEAR     24  18  75 S15       29.72F WCI  12
DEVILS LAKE    FAIR      19  12  73 NW22      29.72S WCI   3
$$

NDZ022-023-025-028>030-036>039-047>053-030700-
SOUTHEAST NORTH DAKOTA

CITY           SKY/WX    TMP DP  RH WIND       PRES   REMARKS
FARGO          FAIR      27  19  72 S22G32    29.78F WCI  13
6HR MIN TEMP:  27; 6HR MAX TEMP:  30;

JAMESTOWN      FAIR      25  19  78 S6        29.72S WCI  18
$$



USA.gov is the U.S. government's official web portal to all federal, state and local government web resources and services.